#timestamp,LO_Frequency,Hit,StdDev 
1591012815.8,286046980.1,N
1591012835.7,286046970.9,N
1591012855.5,286046966.4,N
1591012875.3,286046961.3,N
1591012895.2,286046967.3,N
1591012915.0,286046966.9,N
1591012935.5,286046973.4,N
1591012955.3,286046978.1,N
1591012975.2,286046986.8,N
1591012995.0,286046991.5,N
1591012995.9,286046991.5,N
1591013015.8,286046997.0,N
1591013035.6,286047002.7,N
1591013055.4,286047005.4,N
1591013075.2,286047012.4,N
1591013095.1,286047011.6,N
1591013096.0,286047011.6,N
1591013115.8,286047013.7,N
1591013135.6,286047013.9,N
1591013155.5,286047015.4,N
1591013175.3,286047012.7,N
1591013195.1,286047006.9,N
1591013215.9,286046997.8,N
1591013235.7,286046988.6,N
1591013255.6,286046982.8,N
1591013275.4,286046979.1,N
1591013295.2,286046983.8,N
1591013315.1,286046992.1,N
1591013316.0,286046992.1,N
1591013335.8,286046998.0,N
1591013355.6,286046999.6,N
1591013375.5,286046998.1,N
1591013395.3,286047002.5,N
1591013415.2,286046998.3,N
1591013435.9,286046995.3,N
1591013455.7,286047000.7,N
1591013475.6,286047002.3,N
1591013495.4,286047003.9,N
1591013515.2,286047002.1,N
1591013535.1,286047003.1,N
1591013536.0,286047003.1,N
1591013555.8,286047002.0,N
1591013575.7,286046997.2,N
1591013595.5,286046990.9,N
1591013615.3,286046985.7,N
1591013635.2,286046975.3,N
1591013655.0,286046971.3,N
1591013655.9,286046971.3,N
1591013675.8,286046975.1,N
1591013695.6,286046979.6,N
1591013715.5,286046976.8,N
1591013735.3,286046972.2,N
1591013755.1,286046976.9,N
1591013775.9,286046983.1,N
1591013795.7,286046985.4,N
1591013815.6,286046987.1,N
1591013835.4,286046984.9,N
1591013855.2,286046979.8,N
1591013875.1,286046977.7,N
1591013876.0,286046977.7,N
1591013895.8,286046976.7,N
1591013915.6,286046969.9,N
1591013935.5,286046966.7,N
1591013955.3,286046957.6,Y
1591013975.2,286046971.8,P
1591013995.0,286046983.6,N
1591013995.9,286046983.6,N
1591014015.8,286046991.3,N
1591014035.6,286046993.9,N
1591014055.4,286046991.4,N
1591014075.3,286046980.9,N
1591014095.1,286046979.4,Y
1591014115.9,286046998.5,P
1591014135.7,286047006.5,N
1591014155.5,286047013.5,N
1591014175.4,286047018.6,N
1591014195.2,286047020.4,N
1591014215.0,286047021.9,N
1591014215.9,286047021.9,N
1591014235.8,286047022.4,N
1591014255.6,286047022.6,N
1591014275.5,286047019.1,N
1591014295.3,286047011.4,N
1591014315.1,286047013.6,N
1591014335.9,286047013.4,N
1591014355.7,286047011.4,N
1591014375.6,286047005.3,N
1591014395.4,286047000.8,N
1591014415.2,286047002.8,N
1591014435.1,286047004.9,N
1591014436.0,286047004.9,N
1591014455.8,286047008.2,N
1591014475.7,286047007.9,N
1591014495.5,286047009.2,N
1591014515.3,286047002.5,N
1591014535.2,286047001.4,N
1591014555.0,286047004.8,N
1591014555.9,286047004.8,N
1591014575.8,286047003.1,N
1591014595.6,286046997.1,N
1591014615.4,286046992.6,N
1591014635.3,286046990.4,N
1591014655.1,286046990.8,N
1591014675.9,286046995.9,N
1591014695.7,286046998.0,N
1591014715.5,286046999.6,N
1591014735.4,286046998.3,N
1591014755.2,286047002.6,N
1591014775.0,286046994.3,N
1591014776.0,286046994.3,N
1591014795.8,286046989.4,N
1591014815.6,286046993.0,N
1591014835.5,286046996.2,N
1591014855.3,286046999.6,N
1591014875.1,286047001.2,N
1591014895.9,286047011.9,N
1591014915.7,286047004.3,N
1591014935.5,286047002.3,N
1591014955.4,286047000.3,N
1591014975.2,286047000.3,N
1591014995.1,286047002.1,N
1591014996.0,286047002.1,N
1591015015.8,286047001.5,N
1591015035.6,286047003.2,N
1591015055.5,286046997.2,N
1591015075.3,286046988.0,N
1591015095.2,286046978.8,Y
1591015115.9,286046980.5,P
1591015135.7,286046985.5,N
1591015155.6,286046989.8,N
1591015175.4,286046988.9,N
1591015195.2,286046991.5,N
1591015215.1,286046984.8,N
1591015216.0,286046984.8,N
1591015235.8,286046979.8,Y
1591015255.7,286046988.2,P
1591015275.5,286046978.6,P
1591015295.3,286046973.0,P
1591015315.2,286046970.2,Y
1591015335.0,286046990.4,P
1591015335.9,286046990.4,N
1591015355.8,286046992.9,N
1591015375.6,286046981.9,Y
1591015395.4,286047021.8,P
1591015415.3,286047033.9,N
1591015435.1,286047043.2,N
1591015455.8,286047053.7,N
1591015475.7,286047060.6,N
1591015495.5,286047065.5,N
1591015515.4,286047068.9,N
1591015535.2,286047070.2,N
1591015555.0,286047075.7,N
1591015555.9,286047075.7,N
1591015575.8,286047067.0,N
1591015595.6,286047068.2,N
1591015615.5,286047067.0,N
1591015635.3,286047065.4,N
1591015655.1,286047076.0,Y
1591015675.9,286047031.4,P
1591015695.7,286047022.3,N
1591015715.6,286047009.6,N
1591015735.4,286047004.3,N
1591015755.2,286047004.8,N
1591015775.1,286047007.7,N
1591015776.0,286047007.7,N
1591015795.8,286047007.8,N
1591015815.6,286047013.1,N
1591015835.5,286047016.3,N
1591015855.3,286047016.9,N
1591015875.2,286047018.6,N
1591015895.9,286047015.1,N
1591015915.7,286047009.6,N
1591015935.6,286047011.9,N
1591015955.4,286047006.5,N
1591015975.3,286047004.9,N
1591015995.1,286047003.1,N
1591015996.0,286047003.1,N
1591016015.8,286047001.2,N
1591016035.7,286047002.0,N
1591016055.5,286046998.6,N
1591016075.3,286046998.8,N
1591016095.2,286046997.4,N
1591016115.0,286046990.7,N
1591016115.9,286046990.7,N
1591016135.8,286046990.8,N
1591016155.6,286046992.2,N
1591016175.4,286046996.3,N
1591016195.3,286046983.9,N
1591016215.1,286046987.0,N
1591016235.9,286046982.3,N
1591016255.7,286046989.5,N
1591016275.5,286046986.3,N
1591016295.4,286046994.4,N
1591016315.2,286047000.4,N
1591016335.0,286047004.4,N
1591016336.0,286047004.4,N
1591016355.8,286046999.1,N
1591016375.6,286046995.7,N
1591016395.5,286046992.3,N
